TimeEST,TemperatureF,Dew PointF,Humidity,Sea Level PressureIn,VisibilityMPH,Wind Direction,Wind SpeedMPH,Gust SpeedMPH,PrecipitationIn,Events,Conditions,WindDirDegrees,DateUTC
12:56 AM,42.1,30.9,65,29.95,10.0,SW,5.8,-,N/A,,Mostly Cloudy,220,2013-02-06 05:56:00
1:56 AM,44.1,30.9,60,29.96,10.0,SW,4.6,-,N/A,,Overcast,220,2013-02-06 06:56:00
2:56 AM,43.0,32.0,65,29.97,10.0,SW,8.1,-,N/A,,Mostly Cloudy,230,2013-02-06 07:56:00
3:56 AM,39.9,30.0,68,29.98,10.0,SW,8.1,-,N/A,,Scattered Clouds,230,2013-02-06 08:56:00
4:56 AM,39.0,30.9,73,29.99,10.0,Calm,Calm,-,N/A,,Clear,0,2013-02-06 09:56:00
5:56 AM,36.0,30.0,79,30.02,10.0,Calm,Calm,-,N/A,,Clear,0,2013-02-06 10:56:00
6:56 AM,36.0,30.0,79,30.06,10.0,NW,8.1,-,N/A,,Clear,320,2013-02-06 11:56:00
7:56 AM,42.1,32.0,67,30.09,10.0,Calm,Calm,-,N/A,,Partly Cloudy,0,2013-02-06 12:56:00
8:56 AM,48.0,30.9,52,30.12,10.0,Calm,Calm,-,N/A,,Clear,0,2013-02-06 13:56:00
9:56 AM,51.1,28.9,43,30.15,10.0,North,8.1,-,N/A,,Clear,360,2013-02-06 14:56:00
10:56 AM,51.1,30.9,46,30.17,10.0,NE,10.4,-,N/A,,Partly Cloudy,40,2013-02-06 15:56:00
11:56 AM,50.0,30.9,48,30.17,10.0,NE,12.7,-,N/A,,Scattered Clouds,40,2013-02-06 16:56:00
12:56 PM,48.9,30.9,50,30.17,10.0,NE,9.2,-,N/A,,Partly Cloudy,40,2013-02-06 17:56:00
1:56 PM,48.9,30.9,50,30.18,10.0,ENE,8.1,-,N/A,,Partly Cloudy,70,2013-02-06 18:56:00
2:56 PM,48.0,30.9,52,30.19,10.0,ENE,8.1,-,N/A,,Partly Cloudy,70,2013-02-06 19:56:00
3:56 PM,46.9,30.9,54,30.20,10.0,East,8.1,-,N/A,,Clear,100,2013-02-06 20:56:00
4:56 PM,45.0,30.9,58,30.21,10.0,ENE,6.9,-,N/A,,Clear,70,2013-02-06 21:56:00
5:56 PM,42.1,30.9,65,30.24,10.0,East,3.5,-,N/A,,Clear,80,2013-02-06 22:56:00
6:56 PM,39.9,30.9,70,30.27,10.0,East,3.5,-,N/A,,Clear,90,2013-02-06 23:56:00
7:56 PM,41.0,30.9,67,30.28,10.0,ENE,3.5,-,N/A,,Clear,70,2013-02-07 00:56:00
8:56 PM,39.9,30.9,70,30.31,10.0,ENE,3.5,-,N/A,,Clear,60,2013-02-07 01:56:00
9:56 PM,37.9,30.9,76,30.33,9.0,ENE,4.6,-,N/A,,Clear,60,2013-02-07 02:56:00
10:56 PM,39.9,32.0,73,30.34,9.0,NE,6.9,-,N/A,,Clear,50,2013-02-07 03:56:00
11:56 PM,42.1,32.0,67,30.33,9.0,ENE,6.9,-,N/A,,Clear,70,2013-02-07 04:56:00